Pagrindinis puslapis
METAR-TAF:

METAR-TAF

Oro uostai :

Velykų sala, Čilė

platuma: 27-09S, ilguma: 109-25W, Aukštis: 51 m

Dabartinis oras

Ataskaita buvo paskelbta 34 minutes, ne 02:00 UTC
Vėjas 2 kt iš Rytų
Temperatūra 22°C
Drėgmė 94%
Slėgis 1016 hPa
Matomumas 10 km arba daugiau
lietus

METAR: SCIP 090200Z AUTO 09002KT 9999 -RA SCT047/// BKN093/// OVC130/// 22/21 Q1016 NOSIG

Laikas: 20:34 (02:34 UTC)


TAF: trūkstamas

Orai ataskaitas ir orų prognozės (METAR, TAF).

turimą stotys yra geltonos ir raudonos taškus žemėlapyje.

Perkelti pele per norėdami pamatyti stoties vardą.

Tada spustelėkite, norėdami matyti oro stebėjimo ir prognozės.

Norėdami pakeisti žemėlapį: spustelėkite ant žalios mygtukų su juodo kryžiaus žemyn,; žalią mygtuką su brūkšneliu, jei norite nutolinti; arba žalių rodyklių gretimoms žemėlapius.


METAR-TAF: